Location: Castillon
(43.0896°N, 0.2156°E)
Time: 18:17:03
(UTC+00:00)

Spot 4 - Pass Details

Date: 16 June 2021
Orbit: 705 x 722 km, 98.3° (Epoch: 30 July)

Event Time Altitude Azimuth Distance (km) Brightness Sun altitude
Exits shadow 23:31:29 46° 235° (SW) 952 4.2 -23.2°
Maximum altitude 23:32:06 49° 260° (W) 913 4.3 -23.2°
Drops below altitude 10° 23:36:45 10° 336° (NNW) 2,189 7.3 -23.3°
Sets 23:39:06 0° 342° (NNW) 3,110 8.5 -23.4°
